Weather History for KAEX - January, 2005

Change the Weather History Date:

Wednesday, January 26, 2005

  Actual Average Record
Temperature  
Mean Temperature 65 °F 49 °F  
Max Temperature 77 °F 60 °F 78 °F (1950)
Min Temperature 53 °F 38 °F 10 °F (1940)
Degree Days  
Heating Degree Days 0 16  
Month to date heating degree days 416  
Since 1 July heating degree days 1205  
Growing Degree Days 15 (Base 50)    
Moisture  
Dew Point 54 °F    
Average Humidity 72    
Maximum Humidity 94    
Minimum Humidity 40    
Precipitation  
Precipitation 0.00 in 0.18 in 2.30 in (1932)
Month to date precipitation 4.19  
Year to date precipitation 4.19  
Snow  
Snow 0.00 in - 1.00 in (1897)
Month to date snowfall  
Since 1 July snowfall  
Snow Depth -    
Sea Level Pressure  
Sea Level Pressure 29.95 in    
Wind  
Wind Speed 7 mph (WNW)    
Max Wind Speed 13 mph    
Max Gust Speed -    
Visibility 9 miles    
Events Fog    
T = Trace of Precipitation, MM = Missing Value Source: NWS Daily Summary

Daily Weather History Graph

Daily Weather History Graph

Search for Another Location

Airport or City:

Trip Planner

Search our weather history database for the weather conditions in past years. The results will help you decide how hot, cold, wet, or windy it might be!

Date:

Astronomy

Jan. 26, 2005 Rise Set
Actual Time 7:05 AM CST 5:40 PM CST
Civil Twilight 6:40 AM CST 6:05 PM CST
Nautical Twilight 6:10 AM CST 6:35 PM CST
Astronomical Twilight 5:42 AM CST 7:03 PM CST
Moon 6:55 PM CST (1/26) 8:08 AM CST (1/26)
Length of Visible Light 11h 25m
Length of Day
10h 34m
Full, 98% of the Moon is Illuminated
Jan 26
Full
Feb 2
Last Quarter
Feb 8
New
Feb 15
First Quarter
Feb 23
Full

Hourly Weather History & Observations

Time (CST) Temp. Dew Point Humidity Pressure Visibility Wind Dir Wind Speed Gust Speed Precip Events Conditions
12:53 AM 62.1 °F 57.0 °F 84% 29.91 in 10.0 mi SW 8.1 mph - N/A   Overcast
1:53 AM 63.0 °F 57.0 °F 81% 29.89 in 10.0 mi SW 9.2 mph - N/A   Overcast
2:20 AM 62.6 °F 57.2 °F 82% 29.87 in 10.0 mi SW 9.2 mph - N/A   Overcast
2:53 AM 62.1 °F 57.0 °F 84% 29.88 in 10.0 mi SW 9.2 mph - N/A   Scattered Clouds
3:53 AM 62.1 °F 57.0 °F 84% 29.88 in 9.0 mi SW 9.2 mph - N/A   Clear
4:53 AM 61.0 °F 57.0 °F 87% 29.89 in 8.0 mi Variable 4.6 mph - N/A   Clear
6:53 AM 55.0 °F 52.0 °F 89% 29.93 in 1.0 mi Calm Calm - N/A   Clear
7:13 AM 53.6 °F 51.8 °F 94% 29.91 in 7.0 mi Calm Calm - N/A Fog Shallow Fog
7:30 AM 53.6 °F 51.8 °F 94% 29.91 in 7.0 mi Calm Calm - N/A Fog Shallow Fog
7:53 AM 53.1 °F 51.1 °F 93% 29.94 in 7.0 mi Calm Calm - N/A Fog Shallow Fog
8:03 AM 53.6 °F 51.8 °F 94% 29.92 in 6.0 mi Calm Calm - N/A Fog Shallow Fog
8:53 AM 61.0 °F 57.9 °F 90% 29.95 in 6.0 mi WSW 11.5 mph - N/A   Mostly Cloudy
9:00 AM 60.8 °F 57.2 °F 88% 29.94 in 10.0 mi West 10.4 mph - N/A   Mostly Cloudy
9:32 AM 64.4 °F 57.2 °F 77% 29.95 in 10.0 mi West 6.9 mph - N/A   Scattered Clouds
9:53 AM 66.0 °F 57.0 °F 73% 29.98 in 10.0 mi West 9.2 mph - N/A   Clear
10:53 AM 70.0 °F 55.9 °F 61% 29.98 in 10.0 mi WNW 8.1 mph - N/A   Clear
11:53 AM 72.0 °F 55.0 °F 55% 29.97 in 10.0 mi NW 8.1 mph - N/A   Clear
12:53 PM 73.9 °F 53.1 °F 48% 29.95 in 10.0 mi NNW 5.8 mph - N/A   Clear
1:53 PM 75.9 °F 53.1 °F 45% 29.93 in 10.0 mi NW 8.1 mph - N/A   Clear
2:53 PM 77.0 °F 51.1 °F 40% 29.93 in 10.0 mi Variable 3.5 mph - N/A   Clear
3:53 PM 75.9 °F 53.1 °F 45% 29.93 in 10.0 mi WNW 5.8 mph - N/A   Clear
4:53 PM 73.9 °F 54.0 °F 50% 29.94 in 10.0 mi NW 4.6 mph - N/A   Clear
5:53 PM 69.1 °F 54.0 °F 58% 29.96 in 10.0 mi Calm Calm - N/A   Clear
6:53 PM 66.9 °F 52.0 °F 59% 29.98 in 10.0 mi NNE 3.5 mph - N/A   Clear
7:53 PM 61.0 °F 52.0 °F 72% 29.99 in 10.0 mi NE 3.5 mph - N/A   Clear
8:53 PM 64.0 °F 53.1 °F 67% 30.01 in 10.0 mi NE 4.6 mph - N/A   Clear
9:53 PM 63.0 °F 53.1 °F 70% 30.04 in 10.0 mi NNE 11.5 mph - N/A   Clear
10:53 PM 61.0 °F 48.0 °F 62% 30.06 in 10.0 mi NE 11.5 mph - N/A   Clear
11:53 PM 59.0 °F 43.0 °F 55% 30.07 in 10.0 mi NE 12.7 mph - N/A   Clear